International Skating Union - Official Site

Essent ISU World Cup Hamar
November 27-28, 2010

Draw | Lap Times | Index | World Cup

Referee: Jacques  DE KONING  (NED)
Starter: Andrè  de VRIES  (NED)
StartTime: EndTime: Air Temp: Ice Temp: Humidity:
11:56 12:28 16.1℃ -11℃ 15.4%
Result 5000m Ladies Division B
Rankings as of Nov 27 2010 2:04PM
Rank: No.: Name: Nation: Time: Behind: Points:
1 45 Yelena  SOKHRYAKOVA RUS RUS 7:10.23200m - 20.40 - (20.4)
600m - 52.86 - (32.4)
1000m - 1:25.96 - (33.1)
1400m - 1:59.87 - (33.9)
1800m - 2:33.54 - (33.6)
2200m - 3:07.61 - (34.0)
2600m - 3:41.86 - (34.2)
3000m - 4:16.39 - (34.5)
3400m - 4:50.83 - (34.4)
3800m - 5:25.35 - (34.5)
4200m - 5:59.87 - (34.5)
4600m - 6:35.15 - (35.2)
5000m - 7:10.23 - (35.0)
35
2 13 Katrin  MATTSCHERODT GER GER 7:11.58200m - 21.53 - (21.5)
600m - 54.45 - (32.9)
1000m - 1:27.85 - (33.4)
1400m - 2:01.22 - (33.3)
1800m - 2:34.93 - (33.7)
2200m - 3:08.96 - (34.0)
2600m - 3:43.25 - (34.2)
3000m - 4:17.70 - (34.4)
3400m - 4:52.51 - (34.8)
3800m - 5:27.16 - (34.6)
4200m - 6:02.00 - (34.8)
4600m - 6:36.76 - (34.7)
5000m - 7:11.58 - (34.8)
1.35 30
3 9 Cathrine  GRAGE DEN DEN 7:11.86200m - 21.85 - (21.8)
600m - 55.24 - (33.3)
1000m - 1:28.94 - (33.7)
1400m - 2:03.10 - (34.1)
1800m - 2:36.88 - (33.7)
2200m - 3:10.81 - (33.9)
2600m - 3:44.71 - (33.9)
3000m - 4:18.99 - (34.2)
3400m - 4:53.28 - (34.2)
3800m - 5:27.92 - (34.6)
4200m - 6:02.40 - (34.4)
4600m - 6:37.12 - (34.7)
5000m - 7:11.86 - (34.7)
1.63 25
4 22 Carlijn  ACHTEREEKTE NED NED 7:12.57200m - 20.92 - (20.9)
600m - 53.85 - (32.9)
1000m - 1:28.10 - (34.2)
1400m - 2:02.59 - (34.4)
1800m - 2:36.73 - (34.1)
2200m - 3:10.86 - (34.1)
2600m - 3:45.19 - (34.3)
3000m - 4:19.44 - (34.2)
3400m - 4:54.08 - (34.6)
3800m - 5:28.72 - (34.6)
4200m - 6:03.46 - (34.7)
4600m - 6:38.12 - (34.6)
5000m - 7:12.57 - (34.4)
2.34 21
5 25 Moniek  KLEINSMAN NED NED 7:13.20200m - 20.80 - (20.8)
600m - 54.31 - (33.5)
1000m - 1:28.57 - (34.2)
1400m - 2:02.26 - (33.6)
1800m - 2:36.51 - (34.2)
2200m - 3:10.26 - (33.7)
2600m - 3:44.59 - (34.3)
3000m - 4:18.77 - (34.1)
3400m - 4:53.70 - (34.9)
3800m - 5:28.74 - (35.0)
4200m - 6:03.87 - (35.1)
4600m - 6:38.65 - (34.7)
5000m - 7:13.20 - (34.5)
2.97 18
6 31 Jorien  VOORHUIS NED NED 7:15.65200m - 20.61 - (20.6)
600m - 53.99 - (33.3)
1000m - 1:28.06 - (34.0)
1400m - 2:02.50 - (34.4)
1800m - 2:36.88 - (34.3)
2200m - 3:11.33 - (34.4)
2600m - 3:45.85 - (34.5)
3000m - 4:20.49 - (34.6)
3400m - 4:55.18 - (34.6)
3800m - 5:30.22 - (35.0)
4200m - 6:05.16 - (34.9)
4600m - 6:40.28 - (35.1)
5000m - 7:15.65 - (35.3)
5.42 15
7 35 Mari  HEMMER NOR NOR 7:15.84200m - 20.95 - (20.9)
600m - 54.16 - (33.2)
1000m - 1:27.45 - (33.2)
1400m - 2:01.00 - (33.5)
1800m - 2:34.30 - (33.3)
2200m - 3:08.14 - (33.8)
2600m - 3:42.30 - (34.1)
3000m - 4:17.02 - (34.7)
3400m - 4:51.86 - (34.8)
3800m - 5:27.32 - (35.4)
4200m - 6:03.25 - (35.9)
4600m - 6:39.78 - (36.5)
5000m - 7:15.84 - (36.0)
5.61 13
8 41 Olga  GRAF RUS RUS 7:16.04200m - 21.62 - (21.6)
600m - 55.15 - (33.5)
1000m - 1:29.55 - (34.4)
1400m - 2:03.69 - (34.1)
1800m - 2:37.40 - (33.7)
2200m - 3:11.08 - (33.6)
2600m - 3:44.93 - (33.8)
3000m - 4:19.01 - (34.0)
3400m - 4:53.50 - (34.4)
3800m - 5:28.30 - (34.8)
4200m - 6:03.76 - (35.4)
4600m - 6:39.85 - (36.0)
5000m - 7:16.04 - (36.1)
5.81 11
9 3 Nicole  GARRIDO CAN CAN 7:18.65200m - 21.49 - (21.4)
600m - 55.21 - (33.7)
1000m - 1:29.11 - (33.9)
1400m - 2:03.56 - (34.4)
1800m - 2:38.04 - (34.4)
2200m - 3:12.46 - (34.4)
2600m - 3:47.13 - (34.6)
3000m - 4:21.65 - (34.5)
3400m - 4:56.24 - (34.5)
3800m - 5:31.27 - (35.0)
4200m - 6:06.59 - (35.3)
4600m - 6:42.07 - (35.4)
5000m - 7:18.65 - (36.5)
8.42 10
10 1 Anna  ROKITA AUT AUT 7:23.63200m - 21.55 - (21.5)
600m - 55.43 - (33.8)
1000m - 1:30.04 - (34.6)
1400m - 2:04.40 - (34.3)
1800m - 2:38.83 - (34.4)
2200m - 3:13.50 - (34.6)
2600m - 3:48.07 - (34.5)
3000m - 4:22.99 - (34.9)
3400m - 4:58.28 - (35.2)
3800m - 5:34.17 - (35.8)
4200m - 6:10.20 - (36.0)
4600m - 6:46.69 - (36.4)
5000m - 7:23.63 - (36.9)
13.40 9
11 12 Bente  KRAUS GER GER 7:23.86200m - 21.23 - (21.2)
600m - 54.64 - (33.4)
1000m - 1:28.77 - (34.1)
1400m - 2:03.02 - (34.2)
1800m - 2:37.57 - (34.5)
2200m - 3:12.40 - (34.8)
2600m - 3:47.79 - (35.3)
3000m - 4:23.62 - (35.8)
3400m - 4:59.51 - (35.8)
3800m - 5:35.53 - (36.0)
4200m - 6:12.22 - (36.6)
4600m - 6:48.61 - (36.3)
5000m - 7:23.86 - (35.2)
13.63 8
12 32 Annouk  van der WEIJDEN NED NED 7:25.25200m - 21.07 - (21.0)
600m - 54.84 - (33.7)
1000m - 1:29.61 - (34.7)
1400m - 2:04.80 - (35.1)
1800m - 2:39.79 - (34.9)
2200m - 3:15.21 - (35.4)
2600m - 3:50.58 - (35.3)
3000m - 4:25.97 - (35.3)
3400m - 5:01.33 - (35.3)
3800m - 5:37.01 - (35.6)
4200m - 6:12.94 - (35.9)
4600m - 6:49.03 - (36.0)
5000m - 7:25.25 - (36.2)
15.02 7
13 19 Ayaka  KIKUCHI JPN JPN 7:26.72200m - 21.27 - (21.2)
600m - 54.39 - (33.1)
1000m - 1:28.94 - (34.5)
1400m - 2:03.92 - (34.9)
1800m - 2:38.61 - (34.6)
2200m - 3:13.57 - (34.9)
2600m - 3:48.42 - (34.8)
3000m - 4:23.56 - (35.1)
3400m - 4:59.13 - (35.5)
3800m - 5:35.47 - (36.3)
4200m - 6:12.48 - (37.0)
4600m - 6:49.88 - (37.4)
5000m - 7:26.72 - (36.8)
16.49 6
14 21 Fuyo  MATSUOKA JPN JPN 7:28.48200m - 21.78 - (21.7)
600m - 56.56 - (34.7)
1000m - 1:31.74 - (35.1)
1400m - 2:06.85 - (35.1)
1800m - 2:42.00 - (35.1)
2200m - 3:17.49 - (35.4)
2600m - 3:53.12 - (35.6)
3000m - 4:28.94 - (35.8)
3400m - 5:04.81 - (35.8)
3800m - 5:40.81 - (36.0)
4200m - 6:16.97 - (36.1)
4600m - 6:52.87 - (35.9)
5000m - 7:28.48 - (35.6)
18.25 5
15 2 Ivanie  BLONDIN CAN CAN 7:30.29200m - 21.32 - (21.3)
600m - 54.59 - (33.2)
1000m - 1:28.67 - (34.0)
1400m - 2:03.98 - (35.3)
1800m - 2:39.03 - (35.0)
2200m - 3:14.61 - (35.5)
2600m - 3:50.24 - (35.6)
3000m - 4:26.00 - (35.7)
3400m - 5:01.69 - (35.6)
3800m - 5:38.34 - (36.6)
4200m - 6:15.12 - (36.7)
4600m - 6:52.20 - (37.0)
5000m - 7:30.29 - (38.0)
20.06 4
16 46 Lada  ZADONSKAYA RUS RUS 7:32.43200m - 21.38 - (21.3)
600m - 55.22 - (33.8)
1000m - 1:29.76 - (34.5)
1400m - 2:04.32 - (34.5)
1800m - 2:39.85 - (35.5)
2200m - 3:15.35 - (35.5)
2600m - 3:51.16 - (35.8)
3000m - 4:27.42 - (36.2)
3400m - 5:03.94 - (36.5)
3800m - 5:40.74 - (36.8)
4200m - 6:17.96 - (37.2)
4600m - 6:55.22 - (37.2)
5000m - 7:32.43 - (37.2)
22.20 3